SQ5MBG-1 Weather Reports


Display with metric or nautical units.
time (UTC)temp
F
wind
direction
speed
MPH
gust
MPH
rain 1hr
in
rain 24hr
in
rain mn
in
humidity
%
barometer
mb
20210922081057 56 270 0.0 0.0 0.00 0.00 0.00 67 1014.9
20210922075557 56 202 0.0 0.0 0.00 0.00 0.00 69 1014.9
20210922074058 55 180 0.0 0.0 0.00 0.00 0.00 72 1014.9
20210922072616 53 180 0.0 0.0 0.00 0.00 0.00
20210922072601 53 180 0.0 0.0 0.00 0.00 0.00 77
20210922072558 53 180 0.0 0.0 0.00 0.00 0.00 77 1014.7
20210922071058 52 202 0.0 0.0 0.00 0.00 0.00 78 1014.5
20210922065558 53 180 0.0 0.0 0.00 0.00 0.00 80 1014.5
20210922064058 52 157 0.0 0.0 0.00 0.00 0.00 84 1014.5
20210922062602 0 202 0.0 0.0 0.00 0.00 0.00 88 1014.3
20210922062558 51 202 0.0 0.0 0.00 0.00 0.00 88 1014.3
20210922052559 46 135 0.0 0.0 0.00 0.00 0.00 91 1014.1
20210922051058 46 135 0.0 0.0 0.00 0.00 0.00 91 1014.1
20210922045558 45 135 0.0 0.0 0.00 0.00 0.00 90 1014.1
20210922044058 45 135 0.0 0.0 0.00 0.00 0.00 90 1014.0
20210922042558 45 135 0.0 0.0 0.00 0.00 0.00 90 1013.9
20210922041058 45 135 0.0 0.0 0.00 0.00 0.00 90 1014.0
20210922035558 45 135 0.0 0.0 0.00 0.00 0.00 90 1014.0
20210922034059 45 135 0.0 0.0 0.00 0.00 0.00 90 1013.9
20210922032558 45 135 0.0 0.0 0.00 0.00 0.00 89 1013.9
20210922031059 46 135 0.0 0.0 0.00 0.00 0.00 89 1013.9
20210922025558 46 135 0.0 0.0 0.00 0.00 0.00 89 1013.7
20210922024058 46 135 0.0 0.0 0.00 0.00 0.00 89 1013.9
20210922022558 46 135 0.0 0.0 0.00 0.00 0.00 89 1013.8
20210922021058 46 135 0.0 0.0 0.00 0.00 0.00 89 1014.0
20210922015558 46 135 0.0 0.0 0.00 0.00 0.00 89 1013.9
20210922012559 46 135 0.0 0.0 0.00 0.00 0.00 88 1013.9
20210922011059 46 135 0.0 0.0 0.00 0.00 0.00 88 1014.0
20210922005558 46 135 0.0 0.0 0.00 0.00 0.00 89 1013.9
20210922004058 46 135 0.0 0.0 0.00 0.00 0.00 88 1014.0
20210922002558 46 135 0.0 0.0 0.00 0.00 0.00 88 1014.0
20210922001059 47 135 0.0 0.0 0.00 0.00 0.00 88 1014.3
20210921234058 47 135 0.0 0.0 0.00 0.00 0.00 88 1014.2
20210921232558 47 135 0.0 0.0 0.00 0.00 0.00 88 1014.1
20210921231058 47 112 0.0 0.0 0.00 0.00 0.00 87 1014.4
20210921225558 48 112 0.0 0.0 0.00 0.00 0.00 87 1014.3
20210921224058 48 112 0.0 0.0 0.00 0.00 0.00 87 1014.5
20210921222558 48 112 0.0 0.0 0.00 0.00 0.00 87 1014.7
20210921221058 48 157 0.0 0.0 0.00 0.00 0.00 87 1014.8
20210921215558 48 157 0.0 0.0 0.00 0.00 0.00 86 1014.8
20210921214058 48 180 0.0 0.0 0.00 0.00 0.00 86 1014.9
20210921212558 48 180 0.0 0.0 0.00 0.00 0.00 85 1014.9
20210921211059 48 135 0.0 0.0 0.00 0.00 0.00 85 1015.0
20210921205559 49 157 0.0 0.0 0.00 0.00 0.00 84 1015.1
20210921204058 49 157 0.0 0.0 0.00 0.00 0.00 84 1015.2
20210921201058 49 157 0.0 0.0 0.00 0.00 0.00 83 1015.2
20210921194058 49 202 0.0 0.0 0.00 0.00 0.00 83 1015.3
20210921191058 49 157 0.0 0.0 0.00 0.00 0.00 82 1015.2
20210921185559 49 157 0.0 0.0 0.00 0.00 0.00 82 1015.4
20210921182559 49 157 0.0 0.0 0.00 0.00 0.00 82 1015.4
20210921181059 49 157 0.0 0.0 0.00 0.00 0.00 81 1015.7
20210921175559 49 157 0.0 0.0 0.00 0.00 0.00 81 1015.6
20210921174059 50 157 0.0 0.0 0.00 0.00 0.00 80 1015.8
20210921172559 50 157 0.0 0.0 0.00 0.00 0.00 80 1015.7
20210921171114 0 157 0.0 0.0 0.00 0.00 0.00
20210921171059 50 157 0.0 0.0 0.00 0.00 0.00 80 1015.7
20210921165559 51 157 0.0 0.0 0.00 0.00 0.00 79 1015.8
20210921164135 51 157 0.0 0.0 0.00 0.00 0.00 79 1015.9
20210921164059 51 157 0.0 0.0 0.00 0.00 0.00 79 1015.9
20210921162559 52 157 0.0 0.0 0.00 0.00 0.00 78 1016.0
20210921155559 0 157 0.0 0.0 0.00 0.00 0.00 1016.0
20210921154059 0 157 0.0 0.0 0.00 0.00 0.00 1016.0
20210921152559 0 157 0.0 0.0 0.00 0.00 0.00 1015.9
20210921145559 54 157 0.0 0.0 0.00 0.00 0.00 74 1015.9
20210921144059 54 157 0.0 0.0 0.00 0.00 0.00 73 1016.1
20210921142559 0 157 0.0 0.0 0.00 0.00 0.00 1016.0
20210921141102 0 157 0.0 0.0 0.00 0.00 0.00
20210921141100 0 157 0.0 0.0 0.00 0.00 0.00 1016.1
20210921134100 0 157 0.0 0.0 0.00 0.00 0.00 1016.0
20210921132559 0 157 0.0 0.0 0.00 0.00 0.00 1015.9
20210921131130 0 157 0.0 0.0 0.00 0.00 0.00 1016.0
20210921131059 0 157 0.0 0.0 0.00 0.00 0.00 1016.0
20210921125559 0 135 0.0 0.0 0.00 0.00 0.00 1016.0
20210921124059 0 135 0.0 0.0 0.00 0.00 0.00 1016.4
20210921122559 57 135 0.0 0.0 0.00 0.00 0.00 68 1016.3
20210921121059 57 157 0.0 0.0 0.00 0.00 0.00 69 1016.1
20210921115559 57 157 0.0 0.0 0.00 0.00 0.00 69 1015.9
20210921114059 56 157 0.0 0.0 0.00 0.00 0.00 69 1015.9
20210921112559 56 157 0.0 0.0 0.00 0.00 0.00 69 1016.1
20210921111059 56 135 0.0 0.0 0.00 0.00 0.00 70 1015.8
20210921105559 55 45 0.0 0.0 0.00 0.00 0.00 71 1015.9
20210921104059 55 270 0.0 0.0 0.00 0.00 0.00 69 1016.1
20210921102559 55 135 0.0 0.0 0.00 0.00 0.00 69 1016.0
20210921101132 56 157 0.0 0.0 0.00 0.00 0.00 70 1015.9
20210921101059 56 157 0.0 0.0 0.00 0.00 0.00 70 1015.9
20210921095559 55 135 0.0 0.0 0.00 0.00 0.00 70 1015.8
20210921092559 55 225 0.0 0.0 0.00 0.00 0.00 71 1015.9
20210921091059 55 112 0.0 0.0 0.00 0.00 0.00 72 1016.2
20210921085559 55 202 0.0 0.0 0.00 0.00 0.00 74 1016.4
20210921084059 53 157 0.0 0.0 0.00 0.00 0.00 76 1016.1